EHI
0 0 0 0 0 0 0 0 0 0 0 0 0 0 0 0 0 0 0 0 0 0 0 0 0 0 0 0 0 0 0 0 0 0 0 0 0 0 0 0 0 0 0 0
0 0 0 0 0 0 0 0 0 0 0 0 0 0 0 0 0 0 0 0 0 0 0 0 0 0 0 0 0 0 0 0 0 0 0 0 0 0 0 0 0 0 0 0
0 0 0 0 0 0 0 0 0 0 0 0 0 0 0 0 0 0 0 0 0 0 0 0 0 0 0 0 0 0 0 0 0 0 0 0 0 0 0 0 0 0 0 0
0 0 0 0 0 0 0 0 0 0 0 0 0 0 0 0 0 0 0 0 0 0 0 0 0 0 0 0 0 0 0 0 0 0 0 0 0 0 0 0 0 0 0 0
0 0 0 0 0 0 0 0 0 0 0 0 0 0 0 0 0 0 0 0 0 0 0 0 0 0 0 0 0 0 0 0 0 0 0 0 0 0 0 0 0 0 0 0
0 0 0 0 0 0 0 0 0 0 0 0 0 0 0 0 0 0 0 0 0 0 0 0 0 0 0 0 0 0 0 0 0 0 0 0 0 0 0 0 0 0 0 0
0 0 0 0 0 0 0 0 0 0 0 0 0 0 0 0 0 0 0 0 0 0 0 0 0 0 0 0 0 0 0 0 0 0 0 0 0 0 0 0 0 0 0 0
0 0 0 0 0 0 0 0 0 0 0 0 0 0 0 0 0 0 0 0 0 0 0 0 0 0 0 0 0 0 0 0 0 0 0 0 0 0 0 0 0 0 0 0
0 0 0 0 0 0 0 0 0 0 0 0 0 0 0 0 0 0 0 0 0 0 0 0 0 0 0 0 0 0 0 0 0 0 0 0 0 0 0 0 0 0 0 0
0 0 0 0 0 0 0 0 0 0 0 0 0 0 0 0 0 0 0 0 0 0 0 0 0 0 0 0 0 0 0 0 0 0 0 0 0 0 0 0 0 0 0 0
0 0 0 0 0 0 0 0 0 0 0 0 0 0 0 0 0 0 0 0 0 0 0 0 0 0 0 0 0 0 0 0 0 0 0 0 0 0 0 0 0 0 0 0
0 0 0 0 0 0 0 0 0 0 0 0 0 0 0 0 0 0 0 0 0 0 0 0 0 0 0 0 0 0 0 0 0 0 0 0 0 0 0 0 0 0 0 0
0 0 0 0 0 0 0 0 0 0 0 0 0 0 0 0 0 0 0 0 0 0 0 0 0 0 0 0 0 0 0 0 0 0 0 0 0 0 0 0 0 0 0 0
0 0 0 0 0 0 0 0 0 0 0 0 0 0 0 0 0 0 0 0 0 0 0 0 0 0 0 0 0 0 0 0 0 0 0 0 0 0 0 0 0 0 0 0
0 0 0 0 0 0 0 0 0 0 0 0 0 0 0 0 0 0 0 0 0 0 0 0 0 0 0 0 0 0 0 0 0 0 0 0 0 0 0 0 0 0 0 0
0 0 0 0 0 0 0 0 0 0 0 0 0 0 0 0 0 0 0 0 0 0 0 0 0 0 0 0 0 0 0 0 0 0 0 0 0 0 0 0 0 0 0 0
0 0 0 0 0 0 0 0 0 0 0 0 0 0 0 0 0 0 0 0 0 0 0 0 0 0 0 0 0 0 0 0 0 0 0 0 0 0 0 0 0 0 0 0
0 0 0 0 0 0 0 0 0 0 0 0 0 0 0 0 0 0 0 0 0 0 0 0 0 0 0 0 0 0 0 0 0 0 0 0 0 0 0 0 0 0 0 0
0 0 0 0 0 0 0 0 0 0 0 0 0 0 0 0 0 0 0 0 0 0 0 0 0 0 0 0 0 0 0 0 0 0 0 0 0 0 0 0 0 0 0 0
0 0 0 0 0 0 0 0 0 0 0 0 0 0 0 0 0 0 0 0 0 0 0 0 0 0 0 0 0 0 0 0 0 0 0 0 0 0 0 0 0 0 0 0
0 0 0 0 0 0 0 0 0 0 0 0 0 0 0 0 0 0 0 0 0 0 0 0 0 0 0 0 0 0 0 0 0 0 0 0 0 0 0 0 0 0 0 0
0 0 0 0 0 0 0 0 0 0 0 0 0 0 0 0 0 0 0 0 0 0 0 0 0 0 0 0 0 0 0 0 0 0 0 0 0 0 0 0 0 0 0 0
0 0 0 0 0 0 0 0 0 0 0 0 0 0 0 0 0 0 0 0 0 0 0 0 0 0 0 0 0 0 0 0 0 0 0 0 0 0 0 0 0 0 0 0
0 0 0 0 0 0 0 0 0 0 0 0 0 0 0 0 0 0 0 0 0 0 0 0 0 0 0 0 0 0 0 0 0 0 0 0 0 0 0 0 0 0 0 0
0 0 0 0 0 0 0 0 0 0 0 0 0 0 0 0 0 0 0 0 0 0 0 0 0 0 0 0 0 0 0 0 0 0 0 0 0 0 0 0 0 0 0 0
0 0 0 0 0 0 0 0 0 0 0 0 0 0 0 0 0 0 0 0 0 0 0 0 0 0 0 0 0 0 0 0 0 0 0 0 0 0 0 0 0 0 0 0
0 0 0 0 0 0 0 0 0 0 0 0 0 0 0 0 0 0 0 0 0 0 0 0 0 0 0 0 0 0 0 0 0 0 0 0 0 0 0 0 0 0 0 0
Wind_Speed
8 7 5 8 9 9 10 10 10 9 9 10 8 6 4 3 1 1 2 3 3 3 3 3 2 2 2 1 1 0 0 1 1 1 1 1 1 2 2 2 3 3 4 3
6 7 8 11 12 11 12 10 11 11 12 7 5 2 2 2 1 1 2 3 3 4 4 3 3 2 2 2 1 0 0 1 1 0 0 1 1 1 2 2 2 2 3 3
5 4 5 11 10 10 7 7 8 11 10 3 2 2 3 3 1 1 2 3 3 3 3 3 3 2 2 1 1 0 0 1 1 1 1 1 1 1 2 2 2 2 3 3
3 1 10 8 3 6 6 6 5 4 3 3 4 3 2 2 1 1 2 3 3 3 4 3 2 2 2 1 0 0 0 1 1 1 1 1 0 1 2 1 2 2 3 3
3 5 9 6 3 2 4 5 3 4 3 2 0 1 1 1 0 1 2 2 3 3 3 2 2 2 1 1 1 1 1 1 1 1 1 1 1 1 1 1 1 1 2 3
4 5 7 4 4 2 2 4 2 2 2 2 2 1 4 2 1 1 2 2 2 3 3 3 3 2 1 1 1 1 2 2 1 1 1 1 2 1 1 1 1 1 1 2
6 6 6 4 4 2 3 4 2 1 1 1 2 4 2 1 1 1 2 2 3 3 3 3 3 2 1 2 2 3 2 1 1 1 1 1 1 1 0 0 0 1 1 1
4 5 7 3 2 1 3 1 1 1 1 1 0 1 1 1 2 2 2 3 3 3 3 4 3 2 2 3 3 2 1 1 1 1 1 0 0 0 0 1 1 1 1 1
5 4 2 2 1 1 1 1 2 1 1 0 1 2 2 2 2 2 3 3 3 2 3 4 4 3 3 4 3 2 1 1 1 1 0 0 1 1 0 1 1 1 1 1
3 3 2 3 2 3 2 1 2 2 1 1 1 1 2 2 3 3 3 3 3 3 4 4 5 4 3 3 3 2 2 2 2 1 1 1 0 1 1 1 1 1 1 2
4 4 3 2 2 3 3 2 2 2 2 1 1 1 1 2 2 2 3 3 3 3 3 4 5 5 4 4 3 2 2 2 2 1 1 1 1 1 1 2 3 3 3 2
4 3 2 4 3 2 2 3 3 2 3 3 2 1 1 2 2 2 2 3 3 3 3 4 5 5 5 4 3 2 2 2 1 1 1 1 1 2 3 2 3 4 4 4
2 2 2 2 2 3 2 2 3 2 2 2 3 2 2 2 2 3 3 3 3 3 3 4 4 5 5 4 3 3 2 2 2 1 1 1 1 1 2 3 3 3 4 4
2 1 2 2 2 2 2 2 3 3 3 3 3 3 2 2 3 3 3 3 3 3 4 4 4 5 5 4 3 3 3 3 2 1 1 1 1 1 1 2 2 3 3 4
4 3 1 2 3 3 3 3 4 4 4 4 3 3 3 3 3 3 3 3 4 4 4 5 5 6 6 4 4 3 3 2 2 1 1 1 1 1 1 1 2 2 2 3
3 3 3 4 4 4 4 4 4 4 4 3 3 3 3 2 2 3 4 4 4 4 5 5 5 6 5 4 4 3 2 3 3 2 1 1 1 1 1 1 1 2 2 2
2 2 3 3 3 4 4 3 3 3 3 3 3 3 3 3 3 4 4 4 3 3 4 4 5 5 5 4 3 3 2 3 4 2 1 2 2 2 2 2 2 2 2 3
1 1 1 1 1 2 3 4 4 4 4 4 3 3 3 3 3 4 4 4 4 4 5 5 5 5 5 5 3 2 2 2 2 2 2 2 2 2 2 2 2 2 2 3
3 3 3 3 2 2 2 3 3 3 3 3 3 3 3 3 3 3 4 4 4 5 6 6 9 6 5 6 5 2 2 3 3 2 2 3 3 2 2 2 2 2 3 3
3 3 3 3 3 3 2 3 3 3 3 3 3 3 4 4 4 4 3 3 3 3 5 6 6 5 5 5 6 3 3 3 3 3 2 2 2 2 2 3 3 3 3 3
3 3 3 3 3 3 2 2 2 3 3 3 3 3 3 4 4 3 3 3 4 4 5 7 5 4 4 5 5 3 2 2 3 3 3 3 3 3 3 3 3 3 3 3
2 3 3 3 3 3 3 3 3 3 3 3 3 3 3 4 4 3 2 3 4 8 6 4 3 6 7 6 3 2 3 3 3 3 3 3 3 3 3 3 3 3 3 3
2 2 3 3 3 3 3 3 3 3 3 3 4 4 4 4 3 3 4 4 4 8 6 4 7 10 10 5 2 2 3 3 3 3 3 3 3 3 3 4 3 3 3 3
3 3 3 3 2 2 3 4 4 3 3 3 3 3 3 3 3 2 3 7 10 10 5 7 11 10 9 3 3 3 3 3 3 3 3 3 3 3 3 3 3 4 4 4
3 3 2 3 3 3 3 4 3 3 4 3 4 4 3 3 3 4 4 5 8 9 5 7 11 11 6 3 3 3 3 4 4 3 3 3 3 3 3 3 3 4 4 4
3 3 3 3 3 3 3 3 3 3 4 4 4 4 3 3 4 4 4 5 6 8 6 4 5 6 4 4 4 4 4 4 5 4 4 4 4 4 4 4 5 4 4 4
3 3 2 2 3 3 3 3 3 4 4 4 5 5 4 4 4 5 5 5 5 5 5 4 4 4 4 4 4 4 4 4 4 4 4 4 4 4 4 5 4 4 4 4
Wind_Direction
255 262 251 248 250 233 222 220 227 243 242 249 240 235 233 232 255 335 343 345 342 336 333 334 340 339 330 319 319 76 138 184 225 231 204 191 194 190 177 188 200 199 192 189
272 261 259 262 253 241 239 234 237 252 259 254 243 212 198 204 183 337 336 333 337 338 335 329 323 320 322 323 313 322 216 256 265 267 201 189 204 187 178 186 193 190 195 190
265 272 287 261 237 222 223 218 213 236 249 251 236 222 207 202 201 236 294 311 319 319 312 305 302 299 287 288 312 322 266 284 267 233 246 242 209 188 192 193 189 194 202 196
251 233 242 249 221 204 214 240 224 225 249 229 225 221 172 170 183 250 287 298 303 307 311 308 304 309 303 305 307 292 302 295 273 251 261 273 215 221 225 217 202 205 207 202
211 236 264 285 282 201 203 252 242 225 259 280 202 74 324 293 240 253 269 282 288 293 294 308 316 312 330 338 325 302 293 289 285 271 253 242 246 257 265 229 221 225 213 204
205 230 247 267 293 289 151 260 288 193 225 261 139 195 257 283 321 323 325 326 326 329 338 339 326 329 2 329 319 291 282 279 290 276 239 235 241 254 290 235 226 214 224 221
217 235 259 281 316 41 173 256 313 177 195 190 197 220 236 289 349 0 357 352 353 355 348 332 329 346 345 319 295 292 291 291 294 286 255 243 248 260 232 195 150 182 222 267
200 225 252 335 41 181 244 315 357 44 76 81 234 296 8 25 15 15 11 3 359 354 342 341 347 357 343 319 306 309 298 294 290 290 287 296 181 303 211 166 173 204 215 282
205 223 295 343 269 299 13 345 340 349 335 55 44 5 8 11 8 7 2 355 352 354 350 351 353 357 342 322 329 335 339 325 311 303 298 226 191 195 202 189 201 229 221 257
262 268 302 329 350 1 358 326 321 315 322 37 64 9 3 358 356 359 359 356 355 2 359 347 346 347 336 329 338 350 347 331 330 340 346 354 337 209 203 208 213 225 231 245
261 284 319 319 315 316 334 346 352 351 357 18 72 28 2 354 351 352 354 354 359 356 349 338 341 342 342 344 355 2 355 352 348 345 351 349 338 298 253 240 229 229 232 229
250 249 247 280 306 338 0 354 359 12 10 5 21 21 14 9 1 2 2 3 1 353 344 338 342 343 345 348 352 359 355 350 343 346 352 348 332 330 321 291 275 262 253 249
277 298 279 305 354 7 11 358 8 30 31 13 12 25 42 33 17 13 9 4 352 343 338 337 344 344 343 345 353 353 338 326 325 326 312 305 306 307 319 332 324 282 262 259
357 12 7 352 343 353 8 8 32 41 37 34 30 30 39 36 21 12 358 347 348 352 354 354 353 346 342 346 355 350 339 328 323 309 298 291 284 281 282 293 310 316 304 286
11 18 27 14 21 25 28 43 49 37 31 27 27 27 27 28 14 358 352 358 9 9 2 357 354 343 343 349 350 339 331 326 324 319 314 305 299 297 290 285 286 297 314 316
8 31 50 50 37 31 35 43 41 22 15 12 10 8 9 16 10 2 3 10 14 1 349 348 343 334 341 348 345 338 333 332 334 330 328 323 314 304 296 288 287 290 295 305
51 20 13 20 21 22 22 25 27 16 9 3 355 358 10 19 16 7 1 359 0 348 341 342 336 335 344 348 344 337 337 337 340 338 326 314 309 302 295 295 293 292 292 295
60 32 8 36 22 14 9 9 10 7 359 351 357 9 12 10 357 347 344 349 358 357 352 343 338 339 345 344 342 337 337 334 333 327 324 318 316 314 311 305 300 298 302 303
32 31 28 25 19 20 8 358 353 353 354 359 9 9 1 353 346 341 346 356 354 344 335 336 342 347 342 339 341 334 334 330 329 327 323 320 325 319 312 305 298 294 295 298
31 30 33 28 20 19 2 350 351 353 347 352 2 4 2 355 349 346 351 347 327 306 311 327 338 339 334 332 340 335 332 327 323 322 321 317 311 307 304 302 300 298 296 293
31 28 27 23 12 8 358 348 348 341 338 349 355 345 338 335 335 334 334 330 326 324 326 332 334 325 323 327 335 334 327 321 319 316 312 307 304 302 300 300 301 300 298 297
20 22 16 9 8 358 350 348 346 343 342 344 343 335 331 330 332 329 315 300 311 326 331 321 316 318 324 329 326 321 318 313 307 304 301 300 298 296 295 296 295 295 295 297
9 9 5 360 354 343 343 347 345 342 339 334 333 331 327 320 317 319 319 319 318 323 325 313 316 321 327 330 317 309 306 304 300 296 293 291 290 288 287 288 288 290 289 290
8 5 355 349 352 357 348 341 339 337 327 320 322 322 320 318 316 304 296 313 322 323 319 317 323 324 329 326 307 298 293 290 287 284 285 286 287 286 283 282 282 285 284 286
360 353 350 354 355 346 336 334 335 334 333 330 327 322 314 304 298 304 306 308 316 321 317 322 326 327 326 305 297 291 287 283 284 284 279 281 282 282 281 280 279 280 280 279
352 344 340 337 330 323 323 327 328 326 326 326 323 318 313 309 304 302 303 304 306 315 315 308 308 314 305 298 294 291 287 293 298 293 284 281 278 276 275 276 275 273 273 271
347 342 338 337 336 332 326 323 321 321 322 316 312 314 316 316 314 312 309 306 305 304 301 300 300 299 297 295 292 287 283 281 280 278 276 271 270 268 268 269 270 270 270 270